Погода в Балиуаге

Филиппины     14°57′35″N   120°53′58″E
темп.,
°C
ветер,
м/с
пор.,
м/с
влажн.,
%
обл.,
%
осадки,
мм/ч
давл.,
гПа
погр.,
м
20 сентября, пн
пн2023:00+24вюв0090100 0.0 101211
02:00+24с0192100 0.0 101011
05:00+23ссв2293100 0.0 101024
08:00+26с2284100 0.0 1011324
11:00+30ссв2468100 0.6 10101142
14:00+32св2460100 2.1 10081545
17:00+28ююв2383100 1.3 100893
20:00+25вюв2287100 2.2 101019
21 сентября, вт
вт2123:00+24в2291100 1.2 101120
02:00+24св2291100 2.4 100917
05:00+24всв1190100 0.0 100912
08:00+26св128379 0.0 1010238
11:00+31вюв136398 0.0 10091366
14:00+31ююз126697 0.8 1006792
17:00+29юз1181100 2.0 100741
20:00+25всв2288100 2.3 100929
22 сентября, ср
ср2223:00+24всв2291100 0.8 101022
02:00+24св119297 1.3 100915
05:00+24всв119287 0.0 100912
08:00+27юв128215 0.0 1011330
11:00+31ююз1266100 0.3 10101040
14:00+31ю226896 5.0 1008582
17:00+29ююв127884 2.9 100836
20:00+25всв2386100 3.0 101137
23 сентября, чт
чт2323:00+24всв229039 0.3 101221
02:00+24всв119199 1.3 101114
05:00+24всв1191100 0.0 101113
08:00+27всв128295 0.0 1012327
11:00+32всв136194 0.0 10111495
14:00+32вюв236291 0.6 10091274
17:00+29юв237867 1.9 100982
20:00+25всв3386100 2.3 101248
24 сентября, пт
пт2423:00+25св228913 0.1 101221
02:00+24св22915 0.2 101121
05:00+23всв229142 0.0 101120
08:00+27всв247826 0.0 1012552
11:00+32всв355898 0.0 10111608
14:00+32всв455778 0.0 10091722
17:00+28в377553 0.0 1009186
20:00+25в368356 0.1 1011119